Time,TemperatureF,DewpointF,PressureIn,WindDirection,WindDirectionDegrees,WindSpeedMPH,WindSpeedGustMPH,Humidity,HourlyPrecipIn,Conditions,Clouds,dailyrainin,SoftwareType,DateUTC
2013-09-16 00:00:00,75.5,64.2,30.09,SSE,168,0.0,4.0,68,0.00,,,0.00,VWS V14.01,2013-09-16 05:00:00,
2013-09-16 00:01:00,75.4,64.1,30.09,South,173,3.0,3.0,68,0.00,,,0.00,VWS V14.01,2013-09-16 05:01:00,
2013-09-16 00:06:00,75.3,64.0,30.09,East,101,0.0,2.0,68,0.00,,,0.00,VWS V14.01,2013-09-16 05:06:00,
2013-09-16 00:11:00,75.3,64.0,30.09,SSE,159,0.0,3.0,68,0.00,,,0.00,VWS V14.01,2013-09-16 05:11:00,
2013-09-16 00:16:00,75.1,63.8,30.09,SSE,158,0.0,3.0,68,0.00,,,0.00,VWS V14.01,2013-09-16 05:16:00,
2013-09-16 00:21:00,75.0,63.7,30.09,SSE,150,1.5,3.0,68,0.00,,,0.00,VWS V14.01,2013-09-16 05:21:00,
2013-09-16 00:26:00,74.9,63.6,30.09,South,170,0.0,3.0,68,0.00,,,0.00,VWS V14.01,2013-09-16 05:26:00,
2013-09-16 00:31:00,74.7,63.5,30.09,SSW,195,0.0,3.0,68,0.00,,,0.00,VWS V14.01,2013-09-16 05:31:00,
2013-09-16 00:36:00,74.6,63.3,30.10,South,172,0.0,3.0,68,0.00,,,0.00,VWS V14.01,2013-09-16 05:36:00,
2013-09-16 00:41:00,74.4,63.6,30.10,South,172,0.0,3.0,69,0.00,,,0.00,VWS V14.01,2013-09-16 05:41:00,
2013-09-16 00:46:00,74.2,63.4,30.10,South,172,0.0,3.0,69,0.00,,,0.00,VWS V14.01,2013-09-16 05:46:00,
2013-09-16 00:51:00,73.9,63.5,30.10,South,172,0.0,3.0,70,0.00,,,0.00,VWS V14.01,2013-09-16 05:51:00,
2013-09-16 00:56:00,73.5,63.1,30.10,South,172,0.0,3.0,70,0.00,,,0.00,VWS V14.01,2013-09-16 05:56:00,
2013-09-16 01:01:00,73.1,63.2,30.10,South,172,0.0,3.0,71,0.00,,,0.00,VWS V14.01,2013-09-16 06:01:00,
2013-09-16 01:06:00,72.7,63.5,30.10,South,172,0.0,3.0,73,0.00,,,0.00,VWS V14.01,2013-09-16 06:06:00,
2013-09-16 01:11:00,72.3,63.6,30.10,South,172,0.0,3.0,74,0.00,,,0.00,VWS V14.01,2013-09-16 06:11:00,
2013-09-16 01:16:00,72.0,63.3,30.10,South,172,0.0,3.0,74,0.00,,,0.00,VWS V14.01,2013-09-16 06:16:00,
2013-09-16 01:21:00,71.6,63.3,30.10,South,172,0.0,3.0,75,0.00,,,0.00,VWS V14.01,2013-09-16 06:21:00,
2013-09-16 01:26:00,71.4,63.5,30.10,South,172,0.0,3.0,76,0.00,,,0.00,VWS V14.01,2013-09-16 06:26:00,
2013-09-16 01:31:00,71.1,63.5,30.10,South,172,0.0,3.0,77,0.00,,,0.00,VWS V14.01,2013-09-16 06:31:00,
2013-09-16 01:36:00,70.7,63.5,30.11,South,172,0.0,3.0,78,0.00,,,0.00,VWS V14.01,2013-09-16 06:36:00,
2013-09-16 01:41:00,70.4,63.2,30.11,South,172,0.0,3.0,78,0.00,,,0.00,VWS V14.01,2013-09-16 06:41:00,
2013-09-16 01:46:00,70.1,63.3,30.11,South,172,0.0,3.0,79,0.00,,,0.00,VWS V14.01,2013-09-16 06:46:00,
2013-09-16 01:51:00,69.9,63.5,30.11,South,172,0.0,3.0,80,0.00,,,0.00,VWS V14.01,2013-09-16 06:51:00,
2013-09-16 01:56:00,70.0,63.5,30.11,South,172,0.0,3.0,80,0.00,,,0.00,VWS V14.01,2013-09-16 06:56:00,
2013-09-16 02:00:00,70.0,63.5,30.11,South,172,0.0,3.0,80,0.00,,,0.00,VWS V14.01,2013-09-16 07:00:00,
2013-09-16 02:01:00,69.9,63.8,30.11,South,172,0.0,0.0,81,0.00,,,0.00,VWS V14.01,2013-09-16 07:01:00,
2013-09-16 02:06:00,69.7,63.6,30.11,South,172,0.0,0.0,81,0.00,,,0.00,VWS V14.01,2013-09-16 07:06:00,
2013-09-16 02:11:00,70.2,63.4,30.11,East,80,0.0,0.0,79,0.00,,,0.00,VWS V14.01,2013-09-16 07:11:00,
2013-09-16 02:16:00,70.5,63.3,30.11,East,80,0.0,0.0,78,0.00,,,0.00,VWS V14.01,2013-09-16 07:16:00,
2013-09-16 02:21:00,70.5,63.3,30.11,East,80,0.0,0.0,78,0.00,,,0.00,VWS V14.01,2013-09-16 07:21:00,
2013-09-16 02:26:00,70.4,63.2,30.11,East,80,0.0,0.0,78,0.00,,,0.00,VWS V14.01,2013-09-16 07:26:00,
2013-09-16 02:31:00,70.4,63.2,30.10,East,81,0.0,0.0,78,0.00,,,0.00,VWS V14.01,2013-09-16 07:31:00,
2013-09-16 02:36:00,70.3,63.5,30.10,East,80,0.0,0.0,79,0.00,,,0.00,VWS V14.01,2013-09-16 07:36:00,
2013-09-16 02:41:00,70.0,63.2,30.11,East,80,0.0,0.0,79,0.00,,,0.00,VWS V14.01,2013-09-16 07:41:00,
2013-09-16 02:46:00,69.8,63.4,30.11,East,80,0.0,0.0,80,0.00,,,0.00,VWS V14.01,2013-09-16 07:46:00,
2013-09-16 02:51:00,69.7,64.0,30.10,East,80,0.0,0.0,82,0.00,,,0.00,VWS V14.01,2013-09-16 07:51:00,
2013-09-16 02:56:00,69.5,63.8,30.10,East,81,0.0,0.0,82,0.00,,,0.00,VWS V14.01,2013-09-16 07:56:00,
2013-09-16 03:01:00,69.3,63.6,30.10,East,80,0.0,0.0,82,0.00,,,0.00,VWS V14.01,2013-09-16 08:01:00,
2013-09-16 03:06:00,69.2,63.8,30.10,East,80,0.0,0.0,83,0.00,,,0.00,VWS V14.01,2013-09-16 08:06:00,
2013-09-16 03:11:00,69.1,63.4,30.10,East,80,0.0,0.0,82,0.00,,,0.00,VWS V14.01,2013-09-16 08:11:00,
2013-09-16 03:16:00,69.3,63.2,30.10,East,81,0.0,1.0,81,0.00,,,0.00,VWS V14.01,2013-09-16 08:16:00,
2013-09-16 03:21:00,69.6,63.2,30.10,East,81,0.0,1.0,80,0.00,,,0.00,VWS V14.01,2013-09-16 08:21:00,
2013-09-16 03:26:00,69.8,63.4,30.10,East,80,0.0,1.0,80,0.00,,,0.00,VWS V14.01,2013-09-16 08:26:00,
2013-09-16 03:31:00,70.0,63.2,30.10,East,81,0.0,1.0,79,0.00,,,0.00,VWS V14.01,2013-09-16 08:31:00,
2013-09-16 03:36:00,70.3,63.1,30.10,SSE,158,0.0,1.0,78,0.00,,,0.00,VWS V14.01,2013-09-16 08:36:00,
2013-09-16 03:41:00,70.2,63.0,30.10,SSE,158,0.0,1.0,78,0.00,,,0.00,VWS V14.01,2013-09-16 08:41:00,
2013-09-16 03:46:00,70.2,62.7,30.10,SSE,158,0.0,1.0,77,0.00,,,0.00,VWS V14.01,2013-09-16 08:46:00,
2013-09-16 03:51:00,70.1,62.9,30.10,SSE,158,0.0,1.0,78,0.00,,,0.00,VWS V14.01,2013-09-16 08:51:00,
2013-09-16 03:56:00,69.8,63.0,30.10,SSE,158,0.0,1.0,79,0.00,,,0.00,VWS V14.01,2013-09-16 08:56:00,
2013-09-16 04:00:00,69.7,63.6,30.11,SSE,158,0.0,1.0,81,0.00,,,0.00,VWS V14.01,2013-09-16 09:00:00,
2013-09-16 04:01:00,69.6,63.9,30.11,SSE,158,0.0,0.0,82,0.00,,,0.00,VWS V14.01,2013-09-16 09:01:00,
2013-09-16 04:06:00,69.4,63.7,30.11,SSE,158,0.0,0.0,82,0.00,,,0.00,VWS V14.01,2013-09-16 09:06:00,
2013-09-16 04:11:00,69.2,63.5,30.11,SSE,158,0.0,0.0,82,0.00,,,0.00,VWS V14.01,2013-09-16 09:11:00,
2013-09-16 04:16:00,69.1,63.0,30.11,SSE,158,0.0,0.0,81,0.00,,,0.00,VWS V14.01,2013-09-16 09:16:00,
2013-09-16 04:21:00,69.1,63.4,30.11,SSE,158,0.0,0.0,82,0.00,,,0.00,VWS V14.01,2013-09-16 09:21:00,
2013-09-16 04:26:00,69.3,63.9,30.11,SSE,158,0.0,0.0,83,0.00,,,0.00,VWS V14.01,2013-09-16 09:26:00,
2013-09-16 04:31:00,69.4,64.0,30.11,SSE,158,0.0,0.0,83,0.00,,,0.00,VWS V14.01,2013-09-16 09:31:00,
2013-09-16 04:36:00,69.5,63.8,30.11,SSE,158,0.0,0.0,82,0.00,,,0.00,VWS V14.01,2013-09-16 09:36:00,
2013-09-16 04:41:00,69.6,63.5,30.11,SSE,158,0.0,0.0,81,0.00,,,0.00,VWS V14.01,2013-09-16 09:41:00,
2013-09-16 04:46:00,70.1,63.3,30.11,SSE,158,0.0,0.0,79,0.00,,,0.00,VWS V14.01,2013-09-16 09:46:00,
2013-09-16 04:51:00,70.6,63.4,30.11,SSE,158,0.0,1.0,78,0.00,,,0.00,VWS V14.01,2013-09-16 09:51:00,
2013-09-16 04:56:00,70.8,63.2,30.11,SSE,158,0.0,1.0,77,0.00,,,0.00,VWS V14.01,2013-09-16 09:56:00,
2013-09-16 05:01:00,70.7,63.1,30.11,SSE,158,0.0,1.0,77,0.00,,,0.00,VWS V14.01,2013-09-16 10:01:00,
2013-09-16 05:06:00,70.7,63.5,30.11,SSE,158,0.0,1.0,78,0.00,,,0.00,VWS V14.01,2013-09-16 10:06:00,
2013-09-16 05:11:00,70.5,63.3,30.11,SSE,158,0.0,1.0,78,0.00,,,0.00,VWS V14.01,2013-09-16 10:11:00,
2013-09-16 05:16:00,70.2,63.8,30.11,SSE,158,0.0,1.0,80,0.00,,,0.00,VWS V14.01,2013-09-16 10:16:00,
2013-09-16 05:21:00,70.0,63.5,30.11,SSE,158,0.0,1.0,80,0.00,,,0.00,VWS V14.01,2013-09-16 10:21:00,
2013-09-16 05:26:00,69.8,63.7,30.11,SSE,158,0.0,1.0,81,0.00,,,0.00,VWS V14.01,2013-09-16 10:26:00,
2013-09-16 05:31:00,69.6,63.9,30.11,SSE,158,0.0,1.0,82,0.00,,,0.00,VWS V14.01,2013-09-16 10:31:00,
2013-09-16 05:36:00,69.4,63.7,30.12,SSE,158,0.0,1.0,82,0.00,,,0.00,VWS V14.01,2013-09-16 10:36:00,
2013-09-16 05:41:00,69.4,63.3,30.12,SSE,158,0.0,1.0,81,0.00,,,0.00,VWS V14.01,2013-09-16 10:41:00,
2013-09-16 05:46:00,69.4,63.3,30.12,SSE,158,0.0,1.0,81,0.00,,,0.00,VWS V14.01,2013-09-16 10:46:00,
2013-09-16 05:51:00,69.3,63.6,30.12,SSE,158,0.0,1.0,82,0.00,,,0.00,VWS V14.01,2013-09-16 10:51:00,
2013-09-16 05:56:00,69.2,63.8,30.12,SSE,158,0.0,1.0,83,0.00,,,0.00,VWS V14.01,2013-09-16 10:56:00,
2013-09-16 06:00:00,69.2,64.2,30.12,SSE,158,0.0,1.0,84,0.00,,,0.00,VWS V14.01,2013-09-16 11:00:00,
2013-09-16 06:01:00,69.1,64.1,30.12,SSE,158,0.0,0.0,84,0.00,,,0.00,VWS V14.01,2013-09-16 11:01:00,
2013-09-16 06:06:00,69.0,64.0,30.12,SSE,158,0.0,0.0,84,0.00,,,0.00,VWS V14.01,2013-09-16 11:06:00,
2013-09-16 06:11:00,69.0,63.6,30.13,NE,43,0.0,1.0,83,0.00,,,0.00,VWS V14.01,2013-09-16 11:11:00,
2013-09-16 06:16:00,69.6,63.9,30.14,WNW,295,9.0,9.0,82,0.00,,,0.00,VWS V14.01,2013-09-16 11:16:00,
2013-09-16 06:21:00,70.0,63.9,30.15,NNW,335,3.0,7.0,81,0.00,,,0.00,VWS V14.01,2013-09-16 11:21:00,
2013-09-16 06:26:00,70.3,64.2,30.15,North,360,3.0,7.0,81,0.00,,,0.00,VWS V14.01,2013-09-16 11:26:00,
2013-09-16 06:31:00,70.5,64.4,30.16,NNW,335,1.5,7.0,81,0.00,,,0.00,VWS V14.01,2013-09-16 11:31:00,
2013-09-16 06:36:00,70.6,64.5,30.16,NNW,347,1.5,7.0,81,0.00,,,0.00,VWS V14.01,2013-09-16 11:36:00,
2013-09-16 06:41:00,70.8,64.3,30.16,ENE,62,6.0,7.0,80,0.00,,,0.00,VWS V14.01,2013-09-16 11:41:00,
2013-09-16 06:46:00,71.0,64.5,30.16,NE,39,3.0,7.0,80,0.00,,,0.00,VWS V14.01,2013-09-16 11:46:00,
2013-09-16 06:51:00,71.1,64.6,30.16,NNE,25,0.0,7.0,80,0.00,,,0.00,VWS V14.01,2013-09-16 11:51:00,
2013-09-16 06:56:00,71.2,64.4,30.16,NE,49,0.0,7.0,79,0.00,,,0.00,VWS V14.01,2013-09-16 11:56:00,
2013-09-16 07:01:00,71.3,64.5,30.17,NE,39,0.0,7.0,79,0.00,,,0.00,VWS V14.01,2013-09-16 12:01:00,
2013-09-16 07:06:00,71.4,64.6,30.17,ENE,60,0.0,7.0,79,0.00,,,0.00,VWS V14.01,2013-09-16 12:06:00,
2013-09-16 07:11:00,71.4,64.9,30.17,NNE,16,1.5,7.0,80,0.00,,,0.00,VWS V14.01,2013-09-16 12:11:00,
2013-09-16 07:16:00,71.3,64.8,30.17,NNE,12,3.0,7.0,80,0.00,,,0.00,VWS V14.01,2013-09-16 12:16:00,
2013-09-16 07:21:00,71.4,64.9,30.18,NNW,334,3.0,7.0,80,0.00,,,0.00,VWS V14.01,2013-09-16 12:21:00,
2013-09-16 07:26:00,71.4,64.9,30.18,NE,40,1.5,7.0,80,0.00,,,0.00,VWS V14.01,2013-09-16 12:26:00,
2013-09-16 07:31:00,71.4,65.3,30.18,NE,46,1.5,7.0,81,0.00,,,0.00,VWS V14.01,2013-09-16 12:31:00,
2013-09-16 07:36:00,71.3,65.5,30.19,NE,45,4.5,7.0,82,0.00,,,0.00,VWS V14.01,2013-09-16 12:36:00,
2013-09-16 07:41:00,71.2,65.8,30.19,ENE,70,0.0,7.0,83,0.00,,,0.00,VWS V14.01,2013-09-16 12:41:00,
2013-09-16 07:46:00,71.1,66.0,30.18,ENE,66,0.0,7.0,84,0.00,,,0.00,VWS V14.01,2013-09-16 12:46:00,
2013-09-16 07:51:00,71.0,66.3,30.19,NE,47,3.0,7.0,85,0.00,,,0.00,VWS V14.01,2013-09-16 12:51:00,
2013-09-16 07:56:00,70.9,66.5,30.19,NNE,27,1.5,7.0,86,0.00,,,0.00,VWS V14.01,2013-09-16 12:56:00,
2013-09-16 08:00:00,70.9,66.5,30.19,NNE,32,0.0,7.0,86,0.00,,,0.00,VWS V14.01,2013-09-16 13:00:00,
2013-09-16 08:01:00,70.9,66.5,30.19,NNE,30,0.0,0.0,86,0.00,,,0.00,VWS V14.01,2013-09-16 13:01:00,
2013-09-16 08:06:00,70.9,66.5,30.19,NNE,23,0.0,1.0,86,0.00,,,0.00,VWS V14.01,2013-09-16 13:06:00,
2013-09-16 08:11:00,70.9,66.8,30.20,North,8,0.0,1.0,87,0.00,,,0.00,VWS V14.01,2013-09-16 13:11:00,
2013-09-16 08:16:00,70.9,66.8,30.20,North,9,0.0,1.0,87,0.00,,,0.00,VWS V14.01,2013-09-16 13:16:00,
2013-09-16 08:21:00,70.9,66.8,30.20,North,9,0.0,1.0,87,0.00,,,0.00,VWS V14.01,2013-09-16 13:21:00,
2013-09-16 08:26:00,71.0,66.9,30.21,North,9,0.0,1.0,87,0.00,,,0.00,VWS V14.01,2013-09-16 13:26:00,
2013-09-16 08:31:00,71.0,67.3,30.21,North,9,0.0,1.0,88,0.00,,,0.00,VWS V14.01,2013-09-16 13:31:00,
2013-09-16 08:36:00,71.1,67.4,30.20,North,9,0.0,1.0,88,0.00,,,0.00,VWS V14.01,2013-09-16 13:36:00,
2013-09-16 08:41:00,71.2,67.5,30.20,ENE,60,0.0,1.0,88,0.00,,,0.00,VWS V14.01,2013-09-16 13:41:00,
2013-09-16 08:46:00,71.3,67.6,30.20,ENE,60,0.0,1.0,88,0.00,,,0.00,VWS V14.01,2013-09-16 13:46:00,
2013-09-16 08:51:00,71.4,67.7,30.21,ENE,60,0.0,1.0,88,0.00,,,0.00,VWS V14.01,2013-09-16 13:51:00,
2013-09-16 08:56:00,71.6,67.9,30.21,ENE,60,0.0,1.0,88,0.00,,,0.00,VWS V14.01,2013-09-16 13:56:00,
2013-09-16 09:01:00,71.7,68.0,30.21,ENE,60,0.0,1.0,88,0.00,,,0.00,VWS V14.01,2013-09-16 14:01:00,
2013-09-16 09:06:00,71.7,68.0,30.22,ENE,60,1.5,1.5,88,0.00,,,0.00,VWS V14.01,2013-09-16 14:06:00,
2013-09-16 09:11:00,71.8,68.1,30.22,ENE,60,0.0,1.0,88,0.00,,,0.00,VWS V14.01,2013-09-16 14:11:00,
2013-09-16 09:16:00,71.8,68.1,30.22,ENE,60,0.0,1.0,88,0.00,,,0.00,VWS V14.01,2013-09-16 14:16:00,
2013-09-16 09:21:00,71.8,68.1,30.22,ENE,68,1.5,1.5,88,0.00,,,0.00,VWS V14.01,2013-09-16 14:21:00,
2013-09-16 09:26:00,71.9,68.2,30.22,East,84,0.0,2.0,88,0.00,,,0.00,VWS V14.01,2013-09-16 14:26:00,
2013-09-16 09:31:00,72.0,67.9,30.23,ENE,70,1.5,2.0,87,0.00,,,0.00,VWS V14.01,2013-09-16 14:31:00,
2013-09-16 09:36:00,71.9,67.8,30.23,SSE,156,1.5,4.0,87,0.00,,,0.00,VWS V14.01,2013-09-16 14:36:00,
2013-09-16 09:41:00,71.9,67.8,30.23,SSE,152,0.0,4.0,87,0.00,,,0.00,VWS V14.01,2013-09-16 14:41:00,
2013-09-16 09:46:00,71.9,68.2,30.23,ESE,108,0.0,4.0,88,0.00,,,0.00,VWS V14.01,2013-09-16 14:46:00,
2013-09-16 09:51:00,71.7,67.6,30.23,SSE,148,0.0,4.0,87,0.00,,,0.00,VWS V14.01,2013-09-16 14:51:00,
2013-09-16 09:56:00,71.7,68.0,30.24,ENE,58,0.0,4.0,88,0.00,,,0.00,VWS V14.01,2013-09-16 14:56:00,
2013-09-16 10:00:00,71.7,68.0,30.24,East,85,1.5,4.0,88,0.00,,,0.00,VWS V14.01,2013-09-16 15:00:00,
2013-09-16 10:01:00,71.7,67.6,30.23,East,87,4.5,4.5,87,0.00,,,0.00,VWS V14.01,2013-09-16 15:01:00,
2013-09-16 10:06:00,71.7,67.6,30.23,ESE,110,0.0,3.0,87,0.00,,,0.00,VWS V14.01,2013-09-16 15:06:00,
2013-09-16 10:11:00,71.9,67.5,30.23,ENE,67,4.5,4.5,86,0.00,,,0.00,VWS V14.01,2013-09-16 15:11:00,
2013-09-16 10:15:00,71.8,67.7,30.23,East,83,0.0,4.0,87,0.00,,,0.00,VWS V14.01,2013-09-16 15:15:00,
2013-09-16 10:20:00,72.0,67.6,30.23,SE,129,0.0,4.0,86,0.00,,,0.00,VWS V14.01,2013-09-16 15:20:00,
2013-09-16 10:25:00,72.4,68.0,30.22,East,101,0.0,4.0,86,0.00,,,0.00,VWS V14.01,2013-09-16 15:25:00,
2013-09-16 10:30:00,72.8,68.0,30.22,South,169,3.0,4.0,85,0.00,,,0.00,VWS V14.01,2013-09-16 15:30:00,
2013-09-16 10:35:00,73.1,68.3,30.23,ESE,103,0.0,4.0,85,0.00,,,0.00,VWS V14.01,2013-09-16 15:35:00,
2013-09-16 10:40:00,73.4,68.3,30.22,North,360,3.0,4.0,84,0.00,,,0.00,VWS V14.01,2013-09-16 15:40:00,
2013-09-16 10:45:00,73.9,68.8,30.22,East,96,0.0,4.0,84,0.00,,,0.00,VWS V14.01,2013-09-16 15:45:00,
2013-09-16 10:50:00,74.4,68.6,30.22,South,176,3.0,4.0,82,0.00,,,0.00,VWS V14.01,2013-09-16 15:50:00,
2013-09-16 10:55:00,74.9,68.7,30.22,SSE,156,3.0,4.0,81,0.00,,,0.00,VWS V14.01,2013-09-16 15:55:00,
2013-09-16 11:00:00,75.3,68.3,30.22,South,181,0.0,4.0,79,0.00,,,0.00,VWS V14.01,2013-09-16 16:00:00,
2013-09-16 11:05:00,75.3,68.7,30.22,ESE,122,1.5,4.0,80,0.00,,,0.00,VWS V14.01,2013-09-16 16:05:00,
2013-09-16 11:10:00,75.2,68.6,30.22,NNE,33,1.5,5.0,80,0.00,,,0.00,VWS V14.01,2013-09-16 16:10:00,
2013-09-16 11:15:00,74.9,68.3,30.22,ENE,75,1.5,5.0,80,0.00,,,0.00,VWS V14.01,2013-09-16 16:15:00,
2013-09-16 11:20:00,75.1,68.9,30.22,SSE,162,4.5,5.0,81,0.00,,,0.00,VWS V14.01,2013-09-16 16:20:00,
2013-09-16 11:25:00,75.6,69.0,30.22,ENE,69,0.0,5.0,80,0.00,,,0.00,VWS V14.01,2013-09-16 16:25:00,
2013-09-16 11:30:00,76.0,69.0,30.22,SE,127,0.0,5.0,79,0.00,,,0.00,VWS V14.01,2013-09-16 16:30:00,
2013-09-16 11:35:00,76.2,68.8,30.22,SE,139,0.0,5.0,78,0.00,,,0.00,VWS V14.01,2013-09-16 16:35:00,
2013-09-16 11:40:00,76.3,68.9,30.22,ESE,104,0.0,5.0,78,0.00,,,0.00,VWS V14.01,2013-09-16 16:40:00,
2013-09-16 11:45:00,76.3,68.6,30.22,East,80,0.0,5.0,77,0.00,,,0.00,VWS V14.01,2013-09-16 16:45:00,
2013-09-16 11:50:00,76.1,68.8,30.22,SE,145,1.5,5.0,78,0.00,,,0.00,VWS V14.01,2013-09-16 16:50:00,
2013-09-16 11:55:00,76.1,69.1,30.22,ESE,106,0.0,5.0,79,0.00,,,0.00,VWS V14.01,2013-09-16 16:55:00,
2013-09-16 12:00:00,76.1,69.1,30.22,ENE,70,3.0,3.0,79,0.00,,,0.00,VWS V14.01,2013-09-16 17:00:00,
2013-09-16 12:05:00,75.7,68.7,30.22,NE,37,0.0,4.0,79,0.00,,,0.00,VWS V14.01,2013-09-16 17:05:00,
2013-09-16 12:10:00,75.6,68.6,30.22,SSE,162,0.0,4.0,79,0.00,,,0.00,VWS V14.01,2013-09-16 17:10:00,
2013-09-16 12:15:00,75.7,68.7,30.22,SSW,210,0.0,4.0,79,0.00,,,0.00,VWS V14.01,2013-09-16 17:15:00,
2013-09-16 12:20:00,75.6,68.6,30.22,SE,128,0.0,4.0,79,0.00,,,0.00,VWS V14.01,2013-09-16 17:20:00,
2013-09-16 12:25:00,75.6,68.6,30.22,SE,128,0.0,4.0,79,0.00,,,0.00,VWS V14.01,2013-09-16 17:25:00,
2013-09-16 12:30:00,75.7,68.4,30.22,SE,129,0.0,4.0,78,0.00,,,0.00,VWS V14.01,2013-09-16 17:30:00,
2013-09-16 12:35:00,75.7,68.4,30.22,East,82,0.0,4.0,78,0.00,,,0.00,VWS V14.01,2013-09-16 17:35:00,
2013-09-16 12:40:00,75.8,69.6,30.21,SSE,156,1.5,4.0,81,0.00,,,0.00,VWS V14.01,2013-09-16 17:40:00,
2013-09-16 12:45:00,76.0,69.0,30.22,SSE,149,1.5,4.0,79,0.00,,,0.00,VWS V14.01,2013-09-16 17:45:00,
2013-09-16 12:50:00,76.1,69.5,30.22,SSE,165,1.5,4.0,80,0.00,,,0.00,VWS V14.01,2013-09-16 17:50:00,
2013-09-16 12:55:00,76.2,69.6,30.21,East,94,0.0,4.0,80,0.00,,,0.00,VWS V14.01,2013-09-16 17:55:00,
2013-09-16 13:00:00,76.2,69.6,30.21,South,171,1.5,4.0,80,0.00,,,0.00,VWS V14.01,2013-09-16 18:00:00,
2013-09-16 13:05:00,76.1,69.5,30.22,East,94,0.0,4.0,80,0.00,,,0.00,VWS V14.01,2013-09-16 18:05:00,
2013-09-16 13:10:00,76.0,69.4,30.22,SE,127,1.5,4.0,80,0.00,,,0.00,VWS V14.01,2013-09-16 18:10:00,
2013-09-16 13:15:00,76.1,69.8,30.22,SE,127,0.0,4.0,81,0.00,,,0.00,VWS V14.01,2013-09-16 18:15:00,
2013-09-16 13:20:00,76.2,69.2,30.22,SSE,162,0.0,4.0,79,0.00,,,0.00,VWS V14.01,2013-09-16 18:20:00,
2013-09-16 13:25:00,76.1,69.5,30.21,SSE,159,3.0,4.0,80,0.00,,,0.00,VWS V14.01,2013-09-16 18:25:00,
2013-09-16 13:30:00,75.9,68.9,30.21,SSE,158,0.0,4.0,79,0.00,,,0.00,VWS V14.01,2013-09-16 18:30:00,
2013-09-16 13:35:00,75.9,69.3,30.21,SSE,158,0.0,4.0,80,0.00,,,0.00,VWS V14.01,2013-09-16 18:35:00,
2013-09-16 13:40:00,76.0,69.8,30.21,SSE,158,0.0,4.0,81,0.00,,,0.00,VWS V14.01,2013-09-16 18:40:00,
2013-09-16 13:45:00,75.9,69.3,30.21,SSE,162,0.0,4.0,80,0.00,,,0.00,VWS V14.01,2013-09-16 18:45:00,
2013-09-16 13:50:00,75.7,69.1,30.21,SSE,162,0.0,4.0,80,0.00,,,0.00,VWS V14.01,2013-09-16 18:50:00,
2013-09-16 14:13:00,75.9,69.3,30.19,South,169,1.5,1.5,80,0.00,,,0.00,VWS V14.01,2013-09-16 19:13:00,
2013-09-16 14:18:00,76.3,69.7,30.19,SSW,197,1.5,4.0,80,0.00,,,0.00,VWS V14.01,2013-09-16 19:18:00,
2013-09-16 14:23:00,76.6,70.0,30.18,South,173,3.0,4.0,80,0.00,,,0.00,VWS V14.01,2013-09-16 19:23:00,
2013-09-16 14:28:00,76.9,69.9,30.18,SSE,160,3.0,4.0,79,0.00,,,0.00,VWS V14.01,2013-09-16 19:28:00,
2013-09-16 14:33:00,77.0,69.6,30.18,ESE,111,0.0,4.0,78,0.00,,,0.00,VWS V14.01,2013-09-16 19:33:00,
2013-09-16 14:38:00,77.1,70.1,30.18,ENE,72,3.0,4.0,79,0.00,,,0.00,VWS V14.01,2013-09-16 19:38:00,
2013-09-16 14:43:00,77.4,70.4,30.18,South,174,3.0,4.0,79,0.00,,,0.00,VWS V14.01,2013-09-16 19:43:00,
2013-09-16 14:48:00,77.8,70.4,30.18,SE,129,0.0,4.0,78,0.00,,,0.00,VWS V14.01,2013-09-16 19:48:00,
2013-09-16 14:53:00,78.0,70.6,30.17,NE,34,3.0,4.0,78,0.00,,,0.00,VWS V14.01,2013-09-16 19:53:00,
2013-09-16 14:58:00,78.6,71.2,30.17,ENE,65,1.5,4.0,78,0.00,,,0.00,VWS V14.01,2013-09-16 19:58:00,
2013-09-16 15:03:00,78.4,70.2,30.17,ENE,57,3.0,6.0,76,0.00,,,0.00,VWS V14.01,2013-09-16 20:03:00,
2013-09-16 15:08:00,78.3,70.9,30.17,ENE,70,3.0,6.0,78,0.00,,,0.00,VWS V14.01,2013-09-16 20:08:00,
2013-09-16 15:13:00,78.5,70.7,30.16,ENE,72,3.0,6.0,77,0.00,,,0.00,VWS V14.01,2013-09-16 20:13:00,
2013-09-16 15:18:00,78.7,70.9,30.16,ENE,77,3.0,6.0,77,0.00,,,0.00,VWS V14.01,2013-09-16 20:18:00,
2013-09-16 15:23:00,79.0,71.2,30.16,ENE,75,1.5,6.0,77,0.00,,,0.00,VWS V14.01,2013-09-16 20:23:00,
2013-09-16 15:28:00,79.1,71.3,30.16,ENE,68,1.5,6.0,77,0.00,,,0.00,VWS V14.01,2013-09-16 20:28:00,
2013-09-16 15:33:00,79.1,71.3,30.16,NNW,348,3.0,6.0,77,0.00,,,0.00,VWS V14.01,2013-09-16 20:33:00,
2013-09-16 15:38:00,79.1,70.5,30.16,North,5,1.5,6.0,75,0.00,,,0.00,VWS V14.01,2013-09-16 20:38:00,
2013-09-16 15:43:00,79.0,70.8,30.15,NE,41,4.5,7.0,76,0.00,,,0.00,VWS V14.01,2013-09-16 20:43:00,
2013-09-16 15:48:00,78.9,69.9,30.15,ENE,63,6.0,7.0,74,0.00,,,0.00,VWS V14.01,2013-09-16 20:48:00,
2013-09-16 15:53:00,78.6,70.4,30.15,NE,36,1.5,7.0,76,0.00,,,0.00,VWS V14.01,2013-09-16 20:53:00,
2013-09-16 15:58:00,79.0,70.4,30.15,East,84,3.0,7.0,75,0.00,,,0.00,VWS V14.01,2013-09-16 20:58:00,
2013-09-16 16:00:00,78.9,70.3,30.15,NE,47,1.5,7.0,75,0.00,,,0.00,VWS V14.01,2013-09-16 21:00:00,
2013-09-16 16:03:00,79.0,69.2,30.15,East,88,1.5,6.0,72,0.00,,,0.00,VWS V14.01,2013-09-16 21:03:00,
2013-09-16 16:08:00,79.0,68.8,30.15,ENE,70,3.0,7.0,71,0.00,,,0.00,VWS V14.01,2013-09-16 21:08:00,
2013-09-16 16:13:00,79.2,69.8,30.15,NE,51,3.0,7.0,73,0.00,,,0.00,VWS V14.01,2013-09-16 21:13:00,
2013-09-16 16:18:00,78.9,70.3,30.15,NNE,18,4.5,7.0,75,0.00,,,0.00,VWS V14.01,2013-09-16 21:18:00,
2013-09-16 16:23:00,79.0,70.0,30.15,NNE,30,1.5,7.0,74,0.00,,,0.00,VWS V14.01,2013-09-16 21:23:00,
2013-09-16 16:28:00,79.1,70.5,30.15,NNE,16,0.0,7.0,75,0.00,,,0.00,VWS V14.01,2013-09-16 21:28:00,
2013-09-16 16:33:00,79.1,70.1,30.14,NNW,343,3.0,7.0,74,0.00,,,0.00,VWS V14.01,2013-09-16 21:33:00,
2013-09-16 16:38:00,79.0,70.4,30.14,SSW,200,1.5,7.0,75,0.00,,,0.00,VWS V14.01,2013-09-16 21:38:00,
2013-09-16 16:43:00,79.5,71.3,30.14,ENE,65,4.5,7.0,76,0.00,,,0.00,VWS V14.01,2013-09-16 21:43:00,
2013-09-16 16:48:00,79.6,71.4,30.14,SSE,152,3.0,7.0,76,0.00,,,0.00,VWS V14.01,2013-09-16 21:48:00,
2013-09-16 16:53:00,79.9,71.3,30.14,ENE,57,1.5,7.0,75,0.00,,,0.00,VWS V14.01,2013-09-16 21:53:00,
2013-09-16 16:58:00,79.4,71.2,30.14,ENE,62,3.0,7.0,76,0.00,,,0.00,VWS V14.01,2013-09-16 21:58:00,
2013-09-16 17:03:00,78.8,71.0,30.14,SE,134,3.0,7.0,77,0.00,,,0.00,VWS V14.01,2013-09-16 22:03:00,
2013-09-16 17:08:00,78.5,70.7,30.14,NNE,27,0.0,7.0,77,0.00,,,0.00,VWS V14.01,2013-09-16 22:08:00,
2013-09-16 17:13:00,78.3,70.5,30.14,ESE,104,3.0,7.0,77,0.00,,,0.00,VWS V14.01,2013-09-16 22:13:00,
2013-09-16 17:18:00,78.0,70.2,30.15,East,87,7.5,7.5,77,0.00,,,0.00,VWS V14.01,2013-09-16 22:18:00,
2013-09-16 17:23:00,77.5,70.1,30.15,ESE,110,3.0,7.0,78,0.00,,,0.00,VWS V14.01,2013-09-16 22:23:00,
2013-09-16 17:28:00,77.4,70.4,30.15,ENE,59,3.0,7.0,79,0.00,,,0.00,VWS V14.01,2013-09-16 22:28:00,
2013-09-16 17:33:00,77.0,70.0,30.15,ENE,74,4.5,8.0,79,0.00,,,0.00,VWS V14.01,2013-09-16 22:33:00,
2013-09-16 17:38:00,76.6,70.0,30.15,ENE,68,4.5,8.0,80,0.00,,,0.00,VWS V14.01,2013-09-16 22:38:00,
2013-09-16 17:43:00,76.5,69.9,30.15,ENE,72,1.5,8.0,80,0.00,,,0.00,VWS V14.01,2013-09-16 22:43:00,
2013-09-16 17:48:00,76.3,69.7,30.15,NE,44,0.0,8.0,80,0.00,,,0.00,VWS V14.01,2013-09-16 22:48:00,
2013-09-16 17:53:00,76.1,69.8,30.15,East,83,0.0,8.0,81,0.00,,,0.00,VWS V14.01,2013-09-16 22:53:00,
2013-09-16 17:58:00,75.9,69.7,30.15,NNE,27,1.5,8.0,81,0.00,,,0.00,VWS V14.01,2013-09-16 22:58:00,
2013-09-16 18:00:00,75.9,70.0,30.15,NE,45,3.0,8.0,82,0.00,,,0.00,VWS V14.01,2013-09-16 23:00:00,
2013-09-16 18:03:00,75.8,69.9,30.15,NE,56,3.0,3.0,82,0.00,,,0.00,VWS V14.01,2013-09-16 23:03:00,
2013-09-16 18:08:00,75.7,69.8,30.15,ENE,74,0.0,7.0,82,0.00,,,0.00,VWS V14.01,2013-09-16 23:08:00,
2013-09-16 18:13:00,75.6,70.1,30.16,East,79,3.0,7.0,83,0.00,,,0.00,VWS V14.01,2013-09-16 23:13:00,
2013-09-16 18:18:00,75.5,69.6,30.15,East,97,0.0,7.0,82,0.00,,,0.00,VWS V14.01,2013-09-16 23:18:00,
2013-09-16 18:23:00,75.4,69.5,30.15,ENE,58,3.0,7.0,82,0.00,,,0.00,VWS V14.01,2013-09-16 23:23:00,
2013-09-16 18:28:00,75.2,69.3,30.15,East,98,0.0,7.0,82,0.00,,,0.00,VWS V14.01,2013-09-16 23:28:00,
2013-09-16 18:33:00,75.0,69.5,30.14,ENE,64,3.0,7.0,83,0.00,,,0.00,VWS V14.01,2013-09-16 23:33:00,
2013-09-16 18:38:00,74.8,69.3,30.14,East,98,0.0,7.0,83,0.00,,,0.00,VWS V14.01,2013-09-16 23:38:00,
2013-09-16 18:43:00,74.6,69.1,30.14,ENE,64,1.5,7.0,83,0.00,,,0.00,VWS V14.01,2013-09-16 23:43:00,
2013-09-16 18:48:00,74.4,68.9,30.14,ESE,122,1.5,8.0,83,0.00,,,0.00,VWS V14.01,2013-09-16 23:48:00,
2013-09-16 18:53:00,74.2,69.1,30.14,East,82,3.0,8.0,84,0.00,,,0.00,VWS V14.01,2013-09-16 23:53:00,
2013-09-16 18:58:00,74.1,69.0,30.14,East,85,4.5,8.0,84,0.00,,,0.00,VWS V14.01,2013-09-16 23:58:00,
2013-09-16 19:03:00,74.0,68.9,30.14,East,84,3.0,8.0,84,0.00,,,0.00,VWS V14.01,2013-09-17 00:03:00,
2013-09-16 19:08:00,73.9,69.1,30.15,East,80,1.5,8.0,85,0.00,,,0.00,VWS V14.01,2013-09-17 00:08:00,
2013-09-16 19:13:00,73.8,69.0,30.15,ENE,58,6.0,8.0,85,0.00,,,0.00,VWS V14.01,2013-09-17 00:13:00,
2013-09-16 19:18:00,73.6,69.2,30.15,East,83,1.5,8.0,86,0.00,,,0.00,VWS V14.01,2013-09-17 00:18:00,
2013-09-16 19:23:00,73.4,69.0,30.15,NE,50,6.0,8.0,86,0.00,,,0.00,VWS V14.01,2013-09-17 00:23:00,
2013-09-16 19:28:00,73.2,69.1,30.15,East,86,6.0,8.0,87,0.00,,,0.00,VWS V14.01,2013-09-17 00:28:00,
2013-09-16 19:33:00,73.1,69.0,30.15,NNE,32,1.5,8.0,87,0.00,,,0.00,VWS V14.01,2013-09-17 00:33:00,
2013-09-16 19:38:00,72.9,69.1,30.15,ENE,66,1.5,8.0,88,0.00,,,0.00,VWS V14.01,2013-09-17 00:38:00,
2013-09-16 19:43:00,72.7,68.9,30.15,NE,48,1.5,8.0,88,0.00,,,0.00,VWS V14.01,2013-09-17 00:43:00,
2013-09-16 19:48:00,72.5,68.8,30.15,ENE,75,1.5,8.0,88,0.00,,,0.00,VWS V14.01,2013-09-17 00:48:00,
2013-09-16 19:53:00,72.4,68.7,30.15,NE,43,1.5,8.0,88,0.00,,,0.00,VWS V14.01,2013-09-17 00:53:00,
2013-09-16 19:58:00,72.3,68.9,30.15,ENE,72,1.5,8.0,89,0.00,,,0.00,VWS V14.01,2013-09-17 00:58:00,
2013-09-16 20:00:00,72.3,68.9,30.15,ENE,77,3.0,8.0,89,0.00,,,0.00,VWS V14.01,2013-09-17 01:00:00,
2013-09-16 20:03:00,72.2,68.4,30.16,ENE,63,3.0,7.0,88,0.00,,,0.00,VWS V14.01,2013-09-17 01:03:00,
2013-09-16 20:08:00,72.2,68.8,30.15,ESE,107,3.0,7.0,89,0.00,,,0.00,VWS V14.01,2013-09-17 01:08:00,
2013-09-16 20:13:00,72.0,68.6,30.16,NE,49,1.5,7.0,89,0.00,,,0.00,VWS V14.01,2013-09-17 01:13:00,
2013-09-16 20:18:00,72.0,68.6,30.16,ENE,78,3.0,7.0,89,0.00,,,0.00,VWS V14.01,2013-09-17 01:18:00,
2013-09-16 20:23:00,71.9,68.5,30.16,ENE,76,1.5,7.0,89,0.00,,,0.00,VWS V14.01,2013-09-17 01:23:00,
2013-09-16 20:28:00,71.9,68.5,30.16,SSE,160,0.0,7.0,89,0.00,,,0.00,VWS V14.01,2013-09-17 01:28:00,
2013-09-16 20:33:00,71.8,68.4,30.16,East,84,1.5,7.0,89,0.00,,,0.00,VWS V14.01,2013-09-17 01:33:00,
2013-09-16 20:38:00,71.8,68.4,30.16,East,98,6.0,7.0,89,0.00,,,0.00,VWS V14.01,2013-09-17 01:38:00,
2013-09-16 20:43:00,71.7,68.3,30.16,ENE,62,3.0,7.0,89,0.00,,,0.00,VWS V14.01,2013-09-17 01:43:00,
2013-09-16 20:48:00,71.6,68.2,30.16,ENE,77,0.0,7.0,89,0.00,,,0.00,VWS V14.01,2013-09-17 01:48:00,
2013-09-16 20:53:00,71.6,68.2,30.16,ENE,77,0.0,7.0,89,0.00,,,0.00,VWS V14.01,2013-09-17 01:53:00,
2013-09-16 20:58:00,71.5,68.1,30.16,East,91,4.5,7.0,89,0.00,,,0.00,VWS V14.01,2013-09-17 01:58:00,
2013-09-16 21:03:00,71.5,68.1,30.16,ENE,68,6.0,7.0,89,0.00,,,0.00,VWS V14.01,2013-09-17 02:03:00,
2013-09-16 21:08:00,71.4,68.0,30.16,East,86,0.0,7.0,89,0.00,,,0.00,VWS V14.01,2013-09-17 02:08:00,
2013-09-16 21:13:00,71.3,67.9,30.15,ENE,71,6.0,7.0,89,0.00,,,0.00,VWS V14.01,2013-09-17 02:13:00,
2013-09-16 21:18:00,71.2,67.8,30.16,East,92,3.0,7.0,89,0.00,,,0.00,VWS V14.01,2013-09-17 02:18:00,
2013-09-16 21:23:00,71.2,67.8,30.16,East,82,0.0,7.0,89,0.00,,,0.00,VWS V14.01,2013-09-17 02:23:00,
2013-09-16 21:28:00,71.1,67.7,30.16,ENE,78,0.0,7.0,89,0.00,,,0.00,VWS V14.01,2013-09-17 02:28:00,
2013-09-16 21:33:00,71.1,67.7,30.16,ENE,70,1.5,7.0,89,0.00,,,0.00,VWS V14.01,2013-09-17 02:33:00,
2013-09-16 21:38:00,71.0,67.6,30.16,ENE,60,0.0,7.0,89,0.00,,,0.00,VWS V14.01,2013-09-17 02:38:00,
2013-09-16 21:43:00,71.0,67.6,30.16,ENE,72,1.5,7.0,89,0.00,,,0.00,VWS V14.01,2013-09-17 02:43:00,
2013-09-16 21:48:00,71.0,67.3,30.16,SSE,150,0.0,7.0,88,0.00,,,0.00,VWS V14.01,2013-09-17 02:48:00,
2013-09-16 21:53:00,71.0,67.3,30.16,East,80,3.0,7.0,88,0.00,,,0.00,VWS V14.01,2013-09-17 02:53:00,
2013-09-16 21:58:00,71.0,67.3,30.16,East,81,0.0,7.0,88,0.00,,,0.00,VWS V14.01,2013-09-17 02:58:00,
2013-09-16 22:00:00,71.0,67.3,30.16,ESE,110,1.5,7.0,88,0.00,,,0.00,VWS V14.01,2013-09-17 03:00:00,
2013-09-16 22:03:00,70.9,66.8,30.16,ENE,75,3.0,5.0,87,0.00,,,0.00,VWS V14.01,2013-09-17 03:03:00,
2013-09-16 22:08:00,70.9,66.8,30.16,ESE,102,0.0,5.0,87,0.00,,,0.00,VWS V14.01,2013-09-17 03:08:00,
2013-09-16 22:13:00,70.8,66.7,30.16,East,87,4.5,5.0,87,0.00,,,0.00,VWS V14.01,2013-09-17 03:13:00,
2013-09-16 22:18:00,70.8,66.7,30.16,SSW,194,1.5,5.0,87,0.00,,,0.00,VWS V14.01,2013-09-17 03:18:00,
2013-09-16 22:23:00,70.7,66.3,30.16,East,84,3.0,8.0,86,0.00,,,0.00,VWS V14.01,2013-09-17 03:23:00,
2013-09-16 22:28:00,70.7,66.0,30.16,East,86,9.0,9.0,85,0.00,,,0.00,VWS V14.01,2013-09-17 03:28:00,
2013-09-16 22:33:00,70.6,65.9,30.16,ENE,57,6.0,9.0,85,0.00,,,0.00,VWS V14.01,2013-09-17 03:33:00,
2013-09-16 22:38:00,70.6,65.9,30.16,East,79,1.5,9.0,85,0.00,,,0.00,VWS V14.01,2013-09-17 03:38:00,
2013-09-16 22:43:00,70.5,65.8,30.16,East,95,1.5,9.0,85,0.00,,,0.00,VWS V14.01,2013-09-17 03:43:00,
2013-09-16 22:48:00,70.4,65.7,30.17,ENE,72,3.0,9.0,85,0.00,,,0.00,VWS V14.01,2013-09-17 03:48:00,
2013-09-16 22:53:00,70.3,65.6,30.17,ENE,73,3.0,9.0,85,0.00,,,0.00,VWS V14.01,2013-09-17 03:53:00,
2013-09-16 22:58:00,70.2,65.5,30.17,East,90,0.0,9.0,85,0.00,,,0.00,VWS V14.01,2013-09-17 03:58:00,
2013-09-16 23:01:00,70.2,65.5,30.17,East,101,1.5,9.0,85,0.00,,,0.00,VWS V14.01,2013-09-17 04:01:00,
2013-09-16 23:02:00,70.2,65.5,30.17,ENE,65,1.5,9.0,85,0.00,,,0.00,VWS V14.01,2013-09-17 04:02:00,
2013-09-16 23:07:00,70.1,65.1,30.17,SE,125,6.0,9.0,84,0.00,,,0.00,VWS V14.01,2013-09-17 04:07:00,
2013-09-16 23:12:00,70.1,65.4,30.17,ESE,122,6.0,9.0,85,0.00,,,0.00,VWS V14.01,2013-09-17 04:12:00,
2013-09-16 23:17:00,70.1,65.1,30.17,ENE,77,6.0,9.0,84,0.00,,,0.00,VWS V14.01,2013-09-17 04:17:00,
2013-09-16 23:22:00,70.0,64.9,30.17,ENE,77,3.0,9.0,84,0.00,,,0.00,VWS V14.01,2013-09-17 04:22:00,
2013-09-16 23:27:00,70.0,64.9,30.17,ENE,74,0.0,9.0,84,0.00,,,0.00,VWS V14.01,2013-09-17 04:27:00,
2013-09-16 23:32:00,70.0,64.9,30.17,SSE,158,3.0,9.0,84,0.00,,,0.00,VWS V14.01,2013-09-17 04:32:00,
2013-09-16 23:37:00,70.0,64.9,30.17,ENE,70,4.5,9.0,84,0.00,,,0.00,VWS V14.01,2013-09-17 04:37:00,
2013-09-16 23:42:00,69.9,64.8,30.17,South,172,0.0,9.0,84,0.00,,,0.00,VWS V14.01,2013-09-17 04:42:00,
2013-09-16 23:47:00,69.9,64.8,30.18,SW,223,1.5,9.0,84,0.00,,,0.00,VWS V14.01,2013-09-17 04:47:00,
2013-09-16 23:52:00,69.9,64.8,30.18,ENE,72,9.0,9.0,84,0.00,,,0.00,VWS V14.01,2013-09-17 04:52:00,
2013-09-16 23:57:00,69.8,64.8,30.17,East,85,0.0,9.0,84,0.00,,,0.00,VWS V14.01,2013-09-17 04:57:00,